Time,TemperatureF,DewpointF,PressureIn,WindDirection,WindDirectionDegrees,WindSpeedMPH,WindSpeedGustMPH,Humidity,HourlyPrecipIn,Conditions,Clouds,dailyrainin,SoftwareType,DateUTC
2013-04-18 00:00:00,73.2,70.1,29.78,ESE,123,7.0,11.0,90,0.00,,---,0.00,VWS V14.00,2013-04-18 05:00:00,
2013-04-18 00:02:00,73.2,70.1,29.78,ESE,119,3.0,11.0,90,0.00,,---,0.00,VWS V14.00,2013-04-18 05:02:00,
2013-04-18 00:05:00,73.3,70.2,29.78,ESE,105,5.0,11.0,90,0.00,,---,0.00,VWS V14.00,2013-04-18 05:05:00,
2013-04-18 00:07:00,73.3,70.2,29.78,SSE,164,1.0,6.0,90,0.00,,---,0.00,VWS V14.00,2013-04-18 05:07:00,
2013-04-18 00:10:00,73.3,70.2,29.78,South,178,4.0,11.0,90,0.00,,---,0.00,VWS V14.00,2013-04-18 05:10:00,
2013-04-18 00:12:00,73.3,70.2,29.78,SE,132,2.0,6.0,90,0.00,,---,0.00,VWS V14.00,2013-04-18 05:12:00,
2013-04-18 00:15:00,73.3,70.2,29.79,SSW,205,7.0,11.0,90,0.00,,---,0.00,VWS V14.00,2013-04-18 05:15:00,
2013-04-18 00:17:00,73.3,70.2,29.79,SSE,148,2.0,8.0,90,0.00,,---,0.00,VWS V14.00,2013-04-18 05:17:00,
2013-04-18 00:20:00,73.3,70.2,29.79,SSW,203,2.0,10.0,90,0.00,,---,0.00,VWS V14.00,2013-04-18 05:20:00,
2013-04-18 00:22:00,73.3,70.2,29.79,SSW,212,5.0,12.0,90,0.00,,---,0.00,VWS V14.00,2013-04-18 05:22:00,
2013-04-18 00:25:00,73.3,70.2,29.79,ESE,122,6.0,12.0,90,0.00,,---,0.00,VWS V14.00,2013-04-18 05:25:00,
2013-04-18 00:27:00,73.3,70.2,29.79,South,179,5.0,9.0,90,0.00,,---,0.00,VWS V14.00,2013-04-18 05:27:00,
2013-04-18 00:30:00,73.3,70.2,29.79,SW,218,5.0,9.0,90,0.00,,---,0.00,VWS V14.00,2013-04-18 05:30:00,
2013-04-18 00:32:00,73.3,70.2,29.79,SE,128,3.0,11.0,90,0.00,,---,0.00,VWS V14.00,2013-04-18 05:32:00,
2013-04-18 00:35:00,73.3,70.2,29.79,East,96,4.0,11.0,90,0.00,,---,0.00,VWS V14.00,2013-04-18 05:35:00,
2013-04-18 00:37:00,73.3,70.2,29.79,SW,230,2.0,9.0,90,0.00,,---,0.00,VWS V14.00,2013-04-18 05:37:00,
2013-04-18 00:40:00,73.3,70.2,29.79,SW,217,7.0,17.0,90,0.00,,---,0.00,VWS V14.00,2013-04-18 05:40:00,
2013-04-18 00:42:00,73.3,70.2,29.78,South,180,2.0,10.0,90,0.00,,---,0.00,VWS V14.00,2013-04-18 05:42:00,
2013-04-18 00:45:00,73.2,70.1,29.79,SE,126,2.0,13.0,90,0.00,,---,0.00,VWS V14.00,2013-04-18 05:45:00,
2013-04-18 00:47:00,73.3,70.2,29.79,South,188,4.0,8.0,90,0.00,,---,0.00,VWS V14.00,2013-04-18 05:47:00,
2013-04-18 00:50:00,73.2,70.1,29.78,East,92,6.0,8.0,90,0.00,,---,0.00,VWS V14.00,2013-04-18 05:50:00,
2013-04-18 00:52:00,73.2,70.1,29.78,East,98,4.0,7.0,90,0.00,,---,0.00,VWS V14.00,2013-04-18 05:52:00,
2013-04-18 00:55:00,73.2,70.1,29.78,ESE,107,4.0,7.0,90,0.00,,---,0.00,VWS V14.00,2013-04-18 05:55:00,
2013-04-18 00:57:00,73.2,70.1,29.78,WSW,245,3.0,7.0,90,0.00,,---,0.00,VWS V14.00,2013-04-18 05:57:00,
2013-04-18 01:00:00,73.1,70.0,29.78,SE,132,3.0,8.0,90,0.00,,---,0.00,VWS V14.00,2013-04-18 06:00:00,
2013-04-18 01:02:00,73.1,70.0,29.78,SSW,202,3.0,11.0,90,0.00,,---,0.00,VWS V14.00,2013-04-18 06:02:00,
2013-04-18 01:05:00,73.1,70.0,29.78,SSW,195,6.0,11.0,90,0.00,,---,0.00,VWS V14.00,2013-04-18 06:05:00,
2013-04-18 01:07:00,73.1,70.0,29.78,South,182,3.0,5.0,90,0.00,,---,0.00,VWS V14.00,2013-04-18 06:07:00,
2013-04-18 01:10:00,73.1,70.0,29.78,ESE,115,2.0,10.0,90,0.00,,---,0.00,VWS V14.00,2013-04-18 06:10:00,
2013-04-18 01:12:00,73.1,70.0,29.78,SSW,211,6.0,10.0,90,0.00,,---,0.00,VWS V14.00,2013-04-18 06:12:00,
2013-04-18 01:15:00,73.1,70.0,29.78,SE,130,4.0,10.0,90,0.00,,---,0.00,VWS V14.00,2013-04-18 06:15:00,
2013-04-18 01:17:00,73.1,70.0,29.78,East,84,4.0,4.0,90,0.00,,---,0.00,VWS V14.00,2013-04-18 06:17:00,
2013-04-18 01:20:00,73.1,70.0,29.77,ESE,115,2.0,10.0,90,0.00,,---,0.00,VWS V14.00,2013-04-18 06:20:00,
2013-04-18 01:22:00,73.1,70.0,29.77,ESE,119,7.0,7.0,90,0.00,,---,0.00,VWS V14.00,2013-04-18 06:22:00,
2013-04-18 01:25:00,73.0,69.9,29.77,ENE,57,4.0,12.0,90,0.00,,---,0.00,VWS V14.00,2013-04-18 06:25:00,
2013-04-18 01:27:00,73.0,69.9,29.77,South,173,2.0,9.0,90,0.00,,---,0.00,VWS V14.00,2013-04-18 06:27:00,
2013-04-18 01:30:00,73.0,69.9,29.77,SE,127,0.0,11.0,90,0.00,,---,0.00,VWS V14.00,2013-04-18 06:30:00,
2013-04-18 01:32:00,73.0,69.9,29.77,SSW,213,5.0,9.0,90,0.00,,---,0.00,VWS V14.00,2013-04-18 06:32:00,
2013-04-18 01:35:00,73.0,69.9,29.77,South,184,3.0,9.0,90,0.00,,---,0.00,VWS V14.00,2013-04-18 06:35:00,
2013-04-18 01:37:00,73.0,69.9,29.77,SSW,197,3.0,9.0,90,0.00,,---,0.00,VWS V14.00,2013-04-18 06:37:00,
2013-04-18 01:40:00,73.0,69.9,29.77,SE,130,2.0,11.0,90,0.00,,---,0.00,VWS V14.00,2013-04-18 06:40:00,
2013-04-18 01:42:00,73.0,69.9,29.77,South,191,3.0,4.0,90,0.00,,---,0.00,VWS V14.00,2013-04-18 06:42:00,
2013-04-18 01:45:00,73.0,69.9,29.77,ESE,106,0.0,10.0,90,0.00,,---,0.00,VWS V14.00,2013-04-18 06:45:00,
2013-04-18 01:47:00,73.0,69.9,29.77,SSE,165,2.0,5.0,90,0.00,,---,0.00,VWS V14.00,2013-04-18 06:47:00,
2013-04-18 01:50:00,73.0,69.9,29.76,South,172,2.0,9.0,90,0.00,,---,0.00,VWS V14.00,2013-04-18 06:50:00,
2013-04-18 01:52:00,73.0,69.9,29.76,ESE,108,3.0,5.0,90,0.00,,---,0.00,VWS V14.00,2013-04-18 06:52:00,
2013-04-18 01:55:00,72.9,69.8,29.76,SSW,206,4.0,10.0,90,0.00,,---,0.00,VWS V14.00,2013-04-18 06:55:00,
2013-04-18 01:58:00,72.9,69.8,29.76,ESE,108,6.0,7.0,90,0.00,,---,0.00,VWS V14.00,2013-04-18 06:58:00,
2013-04-18 02:00:00,72.9,69.8,29.76,ESE,105,3.0,7.0,90,0.00,,---,0.00,VWS V14.00,2013-04-18 07:00:00,
2013-04-18 02:03:00,72.9,69.8,29.76,ESE,113,5.0,11.0,90,0.00,,---,0.00,VWS V14.00,2013-04-18 07:03:00,
2013-04-18 02:05:00,73.0,69.9,29.76,SSE,154,5.0,11.0,90,0.00,,---,0.00,VWS V14.00,2013-04-18 07:05:00,
2013-04-18 02:08:00,72.9,69.8,29.76,ENE,70,6.0,10.0,90,0.00,,---,0.00,VWS V14.00,2013-04-18 07:08:00,
2013-04-18 02:10:00,73.0,69.9,29.76,SSW,211,2.0,12.0,90,0.00,,---,0.00,VWS V14.00,2013-04-18 07:10:00,
2013-04-18 02:13:00,73.0,69.9,29.76,SSE,162,3.0,9.0,90,0.00,,---,0.00,VWS V14.00,2013-04-18 07:13:00,
2013-04-18 02:15:00,73.0,69.9,29.75,SSE,153,6.0,11.0,90,0.00,,---,0.00,VWS V14.00,2013-04-18 07:15:00,
2013-04-18 02:18:00,73.0,69.9,29.75,SE,140,3.0,9.0,90,0.00,,---,0.00,VWS V14.00,2013-04-18 07:18:00,
2013-04-18 02:20:00,73.0,69.9,29.75,SSE,156,3.0,9.0,90,0.00,,---,0.00,VWS V14.00,2013-04-18 07:20:00,
2013-04-18 02:23:00,73.0,69.9,29.75,ESE,119,5.0,11.0,90,0.00,,---,0.00,VWS V14.00,2013-04-18 07:23:00,
2013-04-18 02:25:00,73.0,69.9,29.75,East,81,2.0,11.0,90,0.00,,---,0.00,VWS V14.00,2013-04-18 07:25:00,
2013-04-18 02:28:00,72.9,69.8,29.75,South,185,1.0,7.0,90,0.00,,---,0.00,VWS V14.00,2013-04-18 07:28:00,
2013-04-18 02:30:00,72.9,69.8,29.75,SE,124,3.0,7.0,90,0.00,,---,0.00,VWS V14.00,2013-04-18 07:30:00,
2013-04-18 02:33:00,72.9,69.8,29.75,SSE,163,3.0,11.0,90,0.00,,---,0.00,VWS V14.00,2013-04-18 07:33:00,
2013-04-18 02:35:00,72.9,69.8,29.74,SE,125,3.0,11.0,90,0.00,,---,0.00,VWS V14.00,2013-04-18 07:35:00,
2013-04-18 02:38:00,72.9,69.8,29.74,East,93,4.0,9.0,90,0.00,,---,0.00,VWS V14.00,2013-04-18 07:38:00,
2013-04-18 02:40:00,72.9,69.8,29.74,SW,222,2.0,9.0,90,0.00,,---,0.00,VWS V14.00,2013-04-18 07:40:00,
2013-04-18 02:43:00,72.9,69.8,29.74,SSW,195,2.0,6.0,90,0.00,,---,0.00,VWS V14.00,2013-04-18 07:43:00,
2013-04-18 02:45:00,72.9,69.8,29.73,SW,217,10.0,11.0,90,0.00,,---,0.00,VWS V14.00,2013-04-18 07:45:00,
2013-04-18 02:48:00,72.9,69.8,29.73,SSW,202,2.0,13.0,90,0.00,,---,0.00,VWS V14.00,2013-04-18 07:48:00,
2013-04-18 02:50:00,72.9,69.8,29.73,South,188,2.0,15.0,90,0.00,,---,0.00,VWS V14.00,2013-04-18 07:50:00,
2013-04-18 02:53:00,72.9,69.8,29.73,SSW,213,1.0,6.0,90,0.00,,---,0.00,VWS V14.00,2013-04-18 07:53:00,
2013-04-18 02:55:00,72.9,69.8,29.73,WSW,240,4.0,7.0,90,0.00,,---,0.00,VWS V14.00,2013-04-18 07:55:00,
2013-04-18 02:58:00,72.9,69.8,29.72,SSE,167,5.0,12.0,90,0.00,,---,0.00,VWS V14.00,2013-04-18 07:58:00,
2013-04-18 03:00:00,72.9,69.8,29.72,SW,221,4.0,12.0,90,0.00,,---,0.00,VWS V14.00,2013-04-18 08:00:00,
2013-04-18 03:03:00,72.9,69.8,29.72,SSW,198,4.0,14.0,90,0.00,,---,0.00,VWS V14.00,2013-04-18 08:03:00,
2013-04-18 03:05:00,72.9,69.8,29.73,SSW,211,2.0,14.0,90,0.00,,---,0.00,VWS V14.00,2013-04-18 08:05:00,
2013-04-18 03:08:00,72.9,69.8,29.73,SSW,203,3.0,7.0,90,0.00,,---,0.00,VWS V14.00,2013-04-18 08:08:00,
2013-04-18 03:10:00,72.9,69.8,29.72,SSW,209,2.0,9.0,90,0.00,,---,0.00,VWS V14.00,2013-04-18 08:10:00,
2013-04-18 03:13:00,72.9,69.8,29.72,SSE,157,3.0,10.0,90,0.00,,---,0.00,VWS V14.00,2013-04-18 08:13:00,
2013-04-18 03:15:00,72.9,69.8,29.72,East,94,7.0,10.0,90,0.00,,---,0.00,VWS V14.00,2013-04-18 08:15:00,
2013-04-18 03:18:00,72.9,69.8,29.72,WSW,245,3.0,8.0,90,0.00,,---,0.00,VWS V14.00,2013-04-18 08:18:00,
2013-04-18 03:20:00,72.9,69.8,29.72,SSW,199,1.0,13.0,90,0.00,,---,0.00,VWS V14.00,2013-04-18 08:20:00,
2013-04-18 03:23:00,72.9,69.8,29.72,SE,130,0.0,4.0,90,0.00,,---,0.00,VWS V14.00,2013-04-18 08:23:00,
2013-04-18 03:25:00,72.9,69.8,29.72,SSW,209,6.0,10.0,90,0.00,,---,0.00,VWS V14.00,2013-04-18 08:25:00,
2013-04-18 03:28:00,72.9,69.8,29.72,SSE,168,5.0,9.0,90,0.00,,---,0.00,VWS V14.00,2013-04-18 08:28:00,
2013-04-18 03:30:00,72.9,69.8,29.72,South,174,6.0,14.0,90,0.00,,---,0.00,VWS V14.00,2013-04-18 08:30:00,
2013-04-18 03:33:00,72.9,69.8,29.72,SE,133,2.0,7.0,90,0.00,,---,0.00,VWS V14.00,2013-04-18 08:33:00,
2013-04-18 03:35:00,72.9,69.8,29.71,SSW,195,4.0,10.0,90,0.00,,---,0.00,VWS V14.00,2013-04-18 08:35:00,
2013-04-18 03:38:00,72.9,69.8,29.72,South,190,4.0,10.0,90,0.00,,---,0.00,VWS V14.00,2013-04-18 08:38:00,
2013-04-18 03:40:00,72.9,69.8,29.72,West,275,4.0,10.0,90,0.00,,---,0.00,VWS V14.00,2013-04-18 08:40:00,
2013-04-18 03:43:00,72.9,69.8,29.71,SW,236,3.0,7.0,90,0.00,,---,0.00,VWS V14.00,2013-04-18 08:43:00,
2013-04-18 03:45:00,72.9,69.8,29.71,ESE,119,2.0,9.0,90,0.00,,---,0.00,VWS V14.00,2013-04-18 08:45:00,
2013-04-18 03:48:00,72.9,69.8,29.71,SSE,148,2.0,11.0,90,0.00,,---,0.00,VWS V14.00,2013-04-18 08:48:00,
2013-04-18 03:50:00,72.9,69.8,29.71,SSE,157,5.0,11.0,90,0.00,,---,0.00,VWS V14.00,2013-04-18 08:50:00,
2013-04-18 03:53:00,72.9,69.8,29.71,South,179,5.0,11.0,90,0.00,,---,0.00,VWS V14.00,2013-04-18 08:53:00,
2013-04-18 03:55:00,72.9,69.8,29.71,SE,131,10.0,11.0,90,0.00,,---,0.00,VWS V14.00,2013-04-18 08:55:00,
2013-04-18 03:58:00,72.9,69.8,29.71,SSW,199,1.0,11.0,90,0.00,,---,0.00,VWS V14.00,2013-04-18 08:58:00,
2013-04-18 04:00:00,72.8,69.7,29.71,SSW,210,4.0,11.0,90,0.00,,---,0.00,VWS V14.00,2013-04-18 09:00:00,
2013-04-18 04:03:00,72.8,69.7,29.71,SSE,165,0.0,6.0,90,0.00,,---,0.00,VWS V14.00,2013-04-18 09:03:00,
2013-04-18 04:05:00,72.9,69.8,29.71,East,86,6.0,9.0,90,0.00,,---,0.00,VWS V14.00,2013-04-18 09:05:00,
2013-04-18 04:08:00,72.8,69.7,29.71,West,259,3.0,11.0,90,0.00,,---,0.00,VWS V14.00,2013-04-18 09:08:00,
2013-04-18 04:10:00,72.8,69.7,29.70,SSE,164,3.0,11.0,90,0.00,,---,0.00,VWS V14.00,2013-04-18 09:10:00,
2013-04-18 04:13:00,72.8,69.7,29.70,SSW,199,2.0,5.0,90,0.00,,---,0.00,VWS V14.00,2013-04-18 09:13:00,
2013-04-18 04:15:00,72.8,69.7,29.70,ESE,115,6.0,13.0,90,0.00,,---,0.00,VWS V14.00,2013-04-18 09:15:00,
2013-04-18 04:18:00,72.8,69.7,29.70,SSE,148,1.0,6.0,90,0.00,,---,0.00,VWS V14.00,2013-04-18 09:18:00,
2013-04-18 04:20:00,72.8,69.7,29.70,SSE,167,1.0,7.0,90,0.00,,---,0.00,VWS V14.00,2013-04-18 09:20:00,
2013-04-18 04:22:00,72.8,69.7,29.70,South,187,7.0,9.0,90,0.00,,---,0.00,VWS V14.00,2013-04-18 09:22:00,
2013-04-18 04:25:00,72.8,69.7,29.70,SSW,203,3.0,11.0,90,0.00,,---,0.00,VWS V14.00,2013-04-18 09:25:00,
2013-04-18 04:27:00,72.8,69.7,29.70,SSW,204,2.0,6.0,90,0.00,,---,0.00,VWS V14.00,2013-04-18 09:27:00,
2013-04-18 04:30:00,72.8,69.7,29.70,East,99,11.0,11.0,90,0.00,,---,0.00,VWS V14.00,2013-04-18 09:30:00,
2013-04-18 04:32:00,72.9,69.8,29.70,ESE,117,3.0,11.0,90,0.00,,---,0.00,VWS V14.00,2013-04-18 09:32:00,
2013-04-18 04:35:00,72.9,69.8,29.70,South,184,0.0,11.0,90,0.00,,---,0.00,VWS V14.00,2013-04-18 09:35:00,
2013-04-18 04:37:00,72.9,69.8,29.70,SE,138,2.0,7.0,90,0.00,,---,0.00,VWS V14.00,2013-04-18 09:37:00,
2013-04-18 04:40:00,72.9,69.8,29.70,SSW,192,5.0,10.0,90,0.00,,---,0.00,VWS V14.00,2013-04-18 09:40:00,
2013-04-18 04:42:00,72.9,69.8,29.70,SSW,208,2.0,7.0,90,0.00,,---,0.00,VWS V14.00,2013-04-18 09:42:00,
2013-04-18 04:45:00,72.9,69.8,29.70,SE,128,3.0,11.0,90,0.00,,---,0.00,VWS V14.00,2013-04-18 09:45:00,
2013-04-18 04:47:00,72.9,69.8,29.70,SE,126,1.0,4.0,90,0.00,,---,0.00,VWS V14.00,2013-04-18 09:47:00,
2013-04-18 04:50:00,72.9,69.8,29.70,ESE,118,4.0,11.0,90,0.00,,---,0.00,VWS V14.00,2013-04-18 09:50:00,
2013-04-18 04:52:00,72.9,69.8,29.70,SSW,203,12.0,12.0,90,0.00,,---,0.00,VWS V14.00,2013-04-18 09:52:00,
2013-04-18 04:55:00,72.9,69.8,29.70,SSW,203,1.0,12.0,90,0.00,,---,0.00,VWS V14.00,2013-04-18 09:55:00,
2013-04-18 04:57:00,72.9,69.8,29.70,SSE,164,2.0,7.0,90,0.00,,---,0.00,VWS V14.00,2013-04-18 09:57:00,
2013-04-18 05:00:00,72.9,69.8,29.70,SW,232,7.0,10.0,90,0.00,,---,0.00,VWS V14.00,2013-04-18 10:00:00,
2013-04-18 05:02:00,72.9,69.8,29.70,SSW,204,3.0,14.0,90,0.00,,---,0.00,VWS V14.00,2013-04-18 10:02:00,
2013-04-18 05:05:00,72.9,69.8,29.70,South,184,2.0,14.0,90,0.00,,---,0.00,VWS V14.00,2013-04-18 10:05:00,
2013-04-18 05:07:00,72.9,69.8,29.70,SSE,162,3.0,5.0,90,0.00,,---,0.00,VWS V14.00,2013-04-18 10:07:00,
2013-04-18 05:10:00,72.8,69.7,29.70,SW,217,6.0,12.0,90,0.00,,---,0.00,VWS V14.00,2013-04-18 10:10:00,
2013-04-18 05:12:00,72.8,69.7,29.70,SSW,205,12.0,13.0,90,0.00,,---,0.00,VWS V14.00,2013-04-18 10:12:00,
2013-04-18 05:15:00,72.8,69.7,29.70,SW,221,6.0,13.0,90,0.00,,---,0.00,VWS V14.00,2013-04-18 10:15:00,
2013-04-18 05:17:00,72.8,69.7,29.70,South,182,7.0,12.0,90,0.00,,---,0.00,VWS V14.00,2013-04-18 10:17:00,
2013-04-18 05:20:00,72.8,69.7,29.70,SSW,194,3.0,12.0,90,0.00,,---,0.00,VWS V14.00,2013-04-18 10:20:00,
2013-04-18 05:22:00,72.8,69.7,29.70,SSW,207,3.0,12.0,90,0.00,,---,0.00,VWS V14.00,2013-04-18 10:22:00,
2013-04-18 05:25:00,72.8,69.7,29.70,SW,223,5.0,13.0,90,0.00,,---,0.00,VWS V14.00,2013-04-18 10:25:00,
2013-04-18 05:27:00,72.8,69.7,29.70,SSW,212,6.0,10.0,90,0.00,,---,0.00,VWS V14.00,2013-04-18 10:27:00,
2013-04-18 05:30:00,72.8,69.7,29.70,South,190,11.0,11.0,90,0.00,,---,0.00,VWS V14.00,2013-04-18 10:30:00,
2013-04-18 05:32:00,72.8,69.7,29.71,SW,229,5.0,11.0,90,0.00,,---,0.00,VWS V14.00,2013-04-18 10:32:00,
2013-04-18 05:35:00,72.8,69.7,29.71,SW,219,6.0,11.0,90,0.00,,---,0.00,VWS V14.00,2013-04-18 10:35:00,
2013-04-18 05:37:00,72.9,69.8,29.71,SSW,200,1.0,11.0,90,0.00,,---,0.00,VWS V14.00,2013-04-18 10:37:00,
2013-04-18 05:40:00,72.9,69.8,29.70,SSE,148,0.0,11.0,90,0.00,,---,0.00,VWS V14.00,2013-04-18 10:40:00,
2013-04-18 05:42:00,72.9,69.8,29.70,South,173,2.0,6.0,90,0.00,,---,0.00,VWS V14.00,2013-04-18 10:42:00,
2013-04-18 05:45:00,72.9,69.8,29.71,SSW,204,7.0,7.0,90,0.00,,---,0.00,VWS V14.00,2013-04-18 10:45:00,
2013-04-18 05:47:00,72.9,69.8,29.70,East,99,3.0,9.0,90,0.00,,---,0.00,VWS V14.00,2013-04-18 10:47:00,
2013-04-18 05:50:00,72.8,69.7,29.71,SW,215,9.0,12.0,90,0.00,,---,0.00,VWS V14.00,2013-04-18 10:50:00,
2013-04-18 05:52:00,72.8,69.7,29.70,SSE,159,1.0,10.0,90,0.00,,---,0.00,VWS V14.00,2013-04-18 10:52:00,
2013-04-18 05:55:00,72.8,69.7,29.70,SSW,194,2.0,14.0,90,0.00,,---,0.00,VWS V14.00,2013-04-18 10:55:00,
2013-04-18 05:57:00,72.8,69.7,29.70,SSE,147,4.0,10.0,90,0.00,,---,0.00,VWS V14.00,2013-04-18 10:57:00,
2013-04-18 06:00:00,72.8,69.7,29.70,SSW,207,0.0,10.0,90,0.00,,---,0.00,VWS V14.00,2013-04-18 11:00:00,
2013-04-18 06:02:00,72.8,69.7,29.70,ESE,103,4.0,7.0,90,0.00,,---,0.00,VWS V14.00,2013-04-18 11:02:00,
2013-04-18 06:05:00,72.8,69.7,29.70,SSW,196,3.0,7.0,90,0.00,,---,0.00,VWS V14.00,2013-04-18 11:05:00,
2013-04-18 06:07:00,72.8,69.7,29.70,SSW,212,11.0,11.0,90,0.00,,---,0.00,VWS V14.00,2013-04-18 11:07:00,
2013-04-18 06:10:00,72.8,69.7,29.70,South,169,2.0,11.0,90,0.00,,---,0.00,VWS V14.00,2013-04-18 11:10:00,
2013-04-18 06:12:00,72.8,69.7,29.70,SE,137,0.0,8.0,90,0.00,,---,0.00,VWS V14.00,2013-04-18 11:12:00,
2013-04-18 06:15:00,72.8,69.7,29.70,ESE,109,4.0,8.0,90,0.00,,---,0.00,VWS V14.00,2013-04-18 11:15:00,
2013-04-18 06:17:00,72.8,69.7,29.70,SSW,195,1.0,6.0,90,0.00,,---,0.00,VWS V14.00,2013-04-18 11:17:00,
2013-04-18 06:20:00,72.8,69.7,29.70,SSE,153,5.0,6.0,90,0.00,,---,0.00,VWS V14.00,2013-04-18 11:20:00,
2013-04-18 06:22:00,72.7,69.6,29.70,SSE,149,1.0,6.0,90,0.00,,---,0.00,VWS V14.00,2013-04-18 11:22:00,
2013-04-18 06:25:00,72.7,69.6,29.70,ESE,116,0.0,6.0,90,0.00,,---,0.00,VWS V14.00,2013-04-18 11:25:00,
2013-04-18 06:27:00,72.7,69.6,29.70,ESE,119,0.0,7.0,90,0.00,,---,0.00,VWS V14.00,2013-04-18 11:27:00,
2013-04-18 06:30:00,72.7,69.6,29.70,SE,134,0.0,7.0,90,0.00,,---,0.00,VWS V14.00,2013-04-18 11:30:00,
2013-04-18 06:32:00,72.7,69.6,29.70,SSW,213,0.0,2.0,90,0.00,,---,0.00,VWS V14.00,2013-04-18 11:32:00,
2013-04-18 06:35:00,72.7,69.6,29.70,SE,130,6.0,6.0,90,0.00,,---,0.00,VWS V14.00,2013-04-18 11:35:00,
2013-04-18 06:37:00,72.7,69.6,29.70,SW,217,4.0,8.0,90,0.00,,---,0.00,VWS V14.00,2013-04-18 11:37:00,
2013-04-18 06:40:00,72.7,69.6,29.70,East,100,3.0,12.0,90,0.00,,---,0.00,VWS V14.00,2013-04-18 11:40:00,
2013-04-18 06:42:00,72.6,69.5,29.70,SE,145,3.0,6.0,90,0.00,,---,0.00,VWS V14.00,2013-04-18 11:42:00,
2013-04-18 06:45:00,72.6,69.5,29.70,SW,217,0.0,11.0,90,0.00,,---,0.00,VWS V14.00,2013-04-18 11:45:00,
2013-04-18 06:47:00,72.6,69.5,29.70,South,191,1.0,6.0,90,0.00,,---,0.00,VWS V14.00,2013-04-18 11:47:00,
2013-04-18 06:50:00,72.6,69.5,29.70,South,191,3.0,9.0,90,0.00,,---,0.00,VWS V14.00,2013-04-18 11:50:00,
2013-04-18 06:52:00,72.6,69.5,29.71,ESE,117,1.0,9.0,90,0.00,,---,0.00,VWS V14.00,2013-04-18 11:52:00,
2013-04-18 06:55:00,72.6,69.5,29.71,ESE,114,0.0,9.0,90,0.00,,---,0.00,VWS V14.00,2013-04-18 11:55:00,
2013-04-18 06:57:00,72.6,69.5,29.71,SSE,164,1.0,11.0,90,0.00,,---,0.00,VWS V14.00,2013-04-18 11:57:00,
2013-04-18 07:00:00,72.6,69.5,29.71,SE,142,2.0,11.0,90,0.00,,---,0.00,VWS V14.00,2013-04-18 12:00:00,
2013-04-18 07:02:00,72.6,69.5,29.71,SE,134,4.0,5.0,90,0.00,,---,0.00,VWS V14.00,2013-04-18 12:02:00,
2013-04-18 07:05:00,72.6,69.5,29.71,South,191,0.0,7.0,90,0.00,,---,0.00,VWS V14.00,2013-04-18 12:05:00,
2013-04-18 07:07:00,72.7,69.6,29.71,SSW,192,3.0,5.0,90,0.00,,---,0.00,VWS V14.00,2013-04-18 12:07:00,
2013-04-18 07:10:00,72.7,69.6,29.71,SSW,200,3.0,13.0,90,0.00,,---,0.00,VWS V14.00,2013-04-18 12:10:00,
2013-04-18 07:12:00,72.7,69.6,29.71,SSW,200,2.0,7.0,90,0.00,,---,0.00,VWS V14.00,2013-04-18 12:12:00,
2013-04-18 07:15:00,72.7,69.6,29.71,SW,217,2.0,7.0,90,0.00,,---,0.00,VWS V14.00,2013-04-18 12:15:00,
2013-04-18 07:17:00,72.8,69.7,29.71,SSW,198,2.0,5.0,90,0.00,,---,0.00,VWS V14.00,2013-04-18 12:17:00,
2013-04-18 07:20:00,72.8,69.7,29.71,SSW,209,5.0,9.0,90,0.00,,---,0.00,VWS V14.00,2013-04-18 12:20:00,
2013-04-18 07:22:00,72.8,69.7,29.72,SSW,201,1.0,7.0,90,0.00,,---,0.00,VWS V14.00,2013-04-18 12:22:00,
2013-04-18 07:25:00,72.8,69.7,29.72,SSW,207,2.0,7.0,90,0.00,,---,0.00,VWS V14.00,2013-04-18 12:25:00,
2013-04-18 07:27:00,72.8,69.7,29.72,SSE,155,0.0,7.0,90,0.00,,---,0.00,VWS V14.00,2013-04-18 12:27:00,
2013-04-18 07:30:00,72.9,69.8,29.72,SSE,163,9.0,10.0,90,0.00,,---,0.00,VWS V14.00,2013-04-18 12:30:00,
2013-04-18 07:32:00,72.9,69.8,29.72,SSW,200,4.0,9.0,90,0.00,,---,0.00,VWS V14.00,2013-04-18 12:32:00,
2013-04-18 07:35:00,73.0,69.9,29.72,SSW,196,2.0,9.0,90,0.00,,---,0.00,VWS V14.00,2013-04-18 12:35:00,
2013-04-18 07:37:00,73.0,69.9,29.72,SW,214,3.0,5.0,90,0.00,,---,0.00,VWS V14.00,2013-04-18 12:37:00,
2013-04-18 07:40:00,73.0,69.9,29.72,SSW,209,1.0,6.0,90,0.00,,---,0.00,VWS V14.00,2013-04-18 12:40:00,
2013-04-18 07:42:00,73.0,69.9,29.72,SSW,192,0.0,7.0,90,0.00,,---,0.00,VWS V14.00,2013-04-18 12:42:00,
2013-04-18 07:45:00,73.0,69.9,29.72,SSW,211,5.0,7.0,90,0.00,,---,0.00,VWS V14.00,2013-04-18 12:45:00,
2013-04-18 07:47:00,73.0,69.9,29.73,SSW,210,3.0,6.0,90,0.00,,---,0.00,VWS V14.00,2013-04-18 12:47:00,
2013-04-18 07:50:00,73.1,70.0,29.73,SSW,203,0.0,12.0,90,0.00,,---,0.00,VWS V14.00,2013-04-18 12:50:00,
2013-04-18 07:52:00,73.1,70.0,29.73,SSW,213,2.0,4.0,90,0.00,,---,0.00,VWS V14.00,2013-04-18 12:52:00,
2013-04-18 07:55:00,73.1,70.0,29.73,SW,215,5.0,10.0,90,0.00,,---,0.00,VWS V14.00,2013-04-18 12:55:00,
2013-04-18 07:57:00,73.1,70.0,29.73,ESE,121,3.0,7.0,90,0.00,,---,0.00,VWS V14.00,2013-04-18 12:57:00,
2013-04-18 08:00:00,73.1,70.0,29.73,SSW,209,2.0,7.0,90,0.00,,---,0.00,VWS V14.00,2013-04-18 13:00:00,
2013-04-18 08:02:00,73.1,70.0,29.73,ESE,107,4.0,7.0,90,0.00,,---,0.00,VWS V14.00,2013-04-18 13:02:00,
2013-04-18 08:05:00,73.2,70.1,29.73,ESE,102,3.0,7.0,90,0.00,,---,0.00,VWS V14.00,2013-04-18 13:05:00,
2013-04-18 08:07:00,73.2,70.1,29.73,ESE,107,2.0,6.0,90,0.00,,---,0.00,VWS V14.00,2013-04-18 13:07:00,
2013-04-18 08:10:00,73.2,70.1,29.73,WSW,252,1.0,6.0,90,0.00,,---,0.00,VWS V14.00,2013-04-18 13:10:00,
2013-04-18 08:12:00,73.2,70.1,29.73,SSW,207,6.0,6.0,90,0.00,,---,0.00,VWS V14.00,2013-04-18 13:12:00,
2013-04-18 08:15:00,73.3,70.2,29.73,SSW,206,10.0,12.0,90,0.00,,---,0.00,VWS V14.00,2013-04-18 13:15:00,
2013-04-18 08:17:00,73.3,70.2,29.73,South,183,2.0,10.0,90,0.00,,---,0.00,VWS V14.00,2013-04-18 13:17:00,
2013-04-18 08:20:00,73.3,70.2,29.73,SSW,199,1.0,10.0,90,0.00,,---,0.00,VWS V14.00,2013-04-18 13:20:00,
2013-04-18 08:22:00,73.3,70.2,29.73,SE,138,0.0,3.0,90,0.00,,---,0.00,VWS V14.00,2013-04-18 13:22:00,
2013-04-18 08:25:00,73.4,70.3,29.73,East,93,3.0,8.0,90,0.00,,---,0.00,VWS V14.00,2013-04-18 13:25:00,
2013-04-18 08:27:00,73.3,70.2,29.73,SSW,213,1.0,8.0,90,0.00,,---,0.00,VWS V14.00,2013-04-18 13:27:00,
2013-04-18 08:30:00,73.4,70.3,29.73,SSW,208,2.0,8.0,90,0.00,,---,0.00,VWS V14.00,2013-04-18 13:30:00,
2013-04-18 08:32:00,73.4,70.3,29.73,SSE,163,2.0,6.0,90,0.00,,---,0.00,VWS V14.00,2013-04-18 13:32:00,
2013-04-18 08:35:00,73.4,70.3,29.73,NW,310,3.0,11.0,90,0.00,,---,0.00,VWS V14.00,2013-04-18 13:35:00,
2013-04-18 08:37:00,73.4,70.3,29.73,SW,217,7.0,10.0,90,0.00,,---,0.00,VWS V14.00,2013-04-18 13:37:00,
2013-04-18 08:40:00,73.4,70.3,29.73,SW,217,4.0,10.0,90,0.00,,---,0.00,VWS V14.00,2013-04-18 13:40:00,
2013-04-18 08:42:00,73.5,70.4,29.73,SSW,211,3.0,7.0,90,0.00,,---,0.00,VWS V14.00,2013-04-18 13:42:00,
2013-04-18 08:45:00,73.5,70.4,29.73,SSW,211,11.0,11.0,90,0.00,,---,0.00,VWS V14.00,2013-04-18 13:45:00,
2013-04-18 08:47:00,73.6,70.5,29.72,SSW,211,3.0,11.0,90,0.00,,---,0.00,VWS V14.00,2013-04-18 13:47:00,
2013-04-18 08:50:00,73.6,70.5,29.72,South,184,5.0,11.0,90,0.00,,---,0.00,VWS V14.00,2013-04-18 13:50:00,
2013-04-18 08:52:00,73.6,70.5,29.72,SSW,196,4.0,7.0,90,0.00,,---,0.00,VWS V14.00,2013-04-18 13:52:00,
2013-04-18 08:55:00,73.7,70.3,29.72,South,181,2.0,10.0,89,0.00,,---,0.00,VWS V14.00,2013-04-18 13:55:00,
2013-04-18 08:57:00,73.7,70.3,29.72,SSW,194,1.0,5.0,89,0.00,,---,0.00,VWS V14.00,2013-04-18 13:57:00,
2013-04-18 09:00:00,73.7,70.3,29.72,SSW,201,2.0,6.0,89,0.00,,---,0.00,VWS V14.00,2013-04-18 14:00:00,
2013-04-18 09:02:00,73.8,70.4,29.72,East,101,3.0,7.0,89,0.00,,---,0.00,VWS V14.00,2013-04-18 14:02:00,
2013-04-18 09:05:00,73.8,70.4,29.72,SSW,195,7.0,11.0,89,0.00,,---,0.00,VWS V14.00,2013-04-18 14:05:00,
2013-04-18 09:07:00,73.8,70.4,29.72,SSE,166,3.0,9.0,89,0.00,,---,0.00,VWS V14.00,2013-04-18 14:07:00,
2013-04-18 09:10:00,73.9,70.5,29.72,SSW,192,5.0,9.0,89,0.00,,---,0.00,VWS V14.00,2013-04-18 14:10:00,
2013-04-18 09:12:00,74.0,70.6,29.72,SW,224,5.0,9.0,89,0.00,,---,0.00,VWS V14.00,2013-04-18 14:12:00,
2013-04-18 09:15:00,74.0,70.6,29.72,SSW,209,5.0,14.0,89,0.00,,---,0.00,VWS V14.00,2013-04-18 14:15:00,
2013-04-18 09:17:00,74.0,70.6,29.72,SW,217,5.0,9.0,89,0.00,,---,0.00,VWS V14.00,2013-04-18 14:17:00,
2013-04-18 09:20:00,74.1,70.7,29.72,SSW,206,2.0,9.0,89,0.00,,---,0.00,VWS V14.00,2013-04-18 14:20:00,
2013-04-18 09:22:00,74.1,70.7,29.72,SW,214,2.0,6.0,89,0.00,,---,0.00,VWS V14.00,2013-04-18 14:22:00,
2013-04-18 09:25:00,74.1,70.7,29.72,SSW,210,3.0,11.0,89,0.00,,---,0.00,VWS V14.00,2013-04-18 14:25:00,
2013-04-18 09:27:00,74.1,70.7,29.72,SW,215,7.0,12.0,89,0.00,,---,0.00,VWS V14.00,2013-04-18 14:27:00,
2013-04-18 09:30:00,74.1,70.7,29.72,SW,225,5.0,12.0,89,0.00,,---,0.00,VWS V14.00,2013-04-18 14:30:00,
2013-04-18 09:32:00,74.1,70.7,29.72,SSE,165,2.0,7.0,89,0.00,,---,0.00,VWS V14.00,2013-04-18 14:32:00,
2013-04-18 09:35:00,74.2,70.8,29.72,SSW,209,9.0,12.0,89,0.00,,---,0.00,VWS V14.00,2013-04-18 14:35:00,
2013-04-18 09:37:00,74.2,70.8,29.71,SSW,211,5.0,9.0,89,0.00,,---,0.00,VWS V14.00,2013-04-18 14:37:00,
2013-04-18 09:40:00,74.2,70.8,29.71,West,267,5.0,11.0,89,0.00,,---,0.00,VWS V14.00,2013-04-18 14:40:00,
2013-04-18 09:42:00,74.1,70.7,29.71,ESE,110,9.0,9.0,89,0.00,,---,0.00,VWS V14.00,2013-04-18 14:42:00,
2013-04-18 09:45:00,74.1,70.7,29.71,SSW,208,7.0,9.0,89,0.00,,---,0.00,VWS V14.00,2013-04-18 14:45:00,
2013-04-18 09:47:00,74.1,70.7,29.71,SSW,203,4.0,7.0,89,0.00,,---,0.00,VWS V14.00,2013-04-18 14:47:00,
2013-04-18 09:50:00,74.1,70.7,29.71,SSE,150,1.0,12.0,89,0.00,,---,0.00,VWS V14.00,2013-04-18 14:50:00,
2013-04-18 09:52:00,74.2,70.8,29.71,SSE,159,1.0,6.0,89,0.00,,---,0.00,VWS V14.00,2013-04-18 14:52:00,
2013-04-18 09:55:00,74.2,70.8,29.71,SSW,205,3.0,13.0,89,0.00,,---,0.00,VWS V14.00,2013-04-18 14:55:00,
2013-04-18 09:57:00,74.2,70.8,29.71,SSW,200,0.0,4.0,89,0.00,,---,0.00,VWS V14.00,2013-04-18 14:57:00,
2013-04-18 10:00:00,74.3,70.8,29.71,SSW,211,0.0,7.0,89,0.00,,---,0.00,VWS V14.00,2013-04-18 15:00:00,
2013-04-18 10:02:00,74.3,70.8,29.71,SW,235,2.0,9.0,89,0.00,,---,0.00,VWS V14.00,2013-04-18 15:02:00,
2013-04-18 10:05:00,74.3,70.8,29.71,South,187,5.0,12.0,89,0.00,,---,0.00,VWS V14.00,2013-04-18 15:05:00,
2013-04-18 10:07:00,74.3,70.8,29.71,South,191,5.0,10.0,89,0.00,,---,0.00,VWS V14.00,2013-04-18 15:07:00,
2013-04-18 10:10:00,74.3,70.8,29.71,SSW,198,6.0,11.0,89,0.00,,---,0.00,VWS V14.00,2013-04-18 15:10:00,
2013-04-18 10:12:00,74.3,70.8,29.71,South,191,0.0,7.0,89,0.00,,---,0.00,VWS V14.00,2013-04-18 15:12:00,
2013-04-18 10:15:00,74.4,70.9,29.71,SSW,202,6.0,12.0,89,0.00,,---,0.00,VWS V14.00,2013-04-18 15:15:00,
2013-04-18 10:17:00,74.4,70.9,29.71,ESE,113,6.0,7.0,89,0.00,,---,0.00,VWS V14.00,2013-04-18 15:17:00,
2013-04-18 10:20:00,74.3,70.8,29.71,South,188,4.0,12.0,89,0.00,,---,0.00,VWS V14.00,2013-04-18 15:20:00,
2013-04-18 10:22:00,74.4,70.9,29.71,South,181,3.0,10.0,89,0.00,,---,0.00,VWS V14.00,2013-04-18 15:22:00,
2013-04-18 10:25:00,74.4,70.9,29.71,SSW,209,4.0,11.0,89,0.00,,---,0.00,VWS V14.00,2013-04-18 15:25:00,
2013-04-18 10:27:00,74.4,70.9,29.71,SSW,196,9.0,10.0,89,0.00,,---,0.00,VWS V14.00,2013-04-18 15:27:00,
2013-04-18 10:30:00,74.4,70.9,29.71,SSW,196,3.0,12.0,89,0.00,,---,0.00,VWS V14.00,2013-04-18 15:30:00,
2013-04-18 10:32:00,74.4,70.9,29.71,SSW,211,9.0,11.0,89,0.00,,---,0.00,VWS V14.00,2013-04-18 15:32:00,
2013-04-18 10:35:00,74.5,71.1,29.71,SW,215,3.0,11.0,89,0.00,,---,0.00,VWS V14.00,2013-04-18 15:35:00,
2013-04-18 10:37:00,74.5,71.1,29.71,SSW,205,11.0,11.0,89,0.00,,---,0.00,VWS V14.00,2013-04-18 15:37:00,
2013-04-18 10:40:00,74.5,71.1,29.71,SSW,197,5.0,11.0,89,0.00,,---,0.00,VWS V14.00,2013-04-18 15:40:00,
2013-04-18 10:42:00,74.5,71.1,29.71,South,184,9.0,9.0,89,0.00,,---,0.00,VWS V14.00,2013-04-18 15:42:00,
2013-04-18 10:45:00,74.5,71.1,29.71,SSW,202,4.0,11.0,89,0.00,,---,0.00,VWS V14.00,2013-04-18 15:45:00,
2013-04-18 10:47:00,74.6,71.2,29.71,ESE,110,2.0,4.0,89,0.00,,---,0.00,VWS V14.00,2013-04-18 15:47:00,
2013-04-18 10:50:00,74.6,71.2,29.71,SW,217,6.0,6.0,89,0.00,,---,0.00,VWS V14.00,2013-04-18 15:50:00,
2013-04-18 10:52:00,74.6,71.2,29.71,SSW,199,4.0,7.0,89,0.00,,---,0.00,VWS V14.00,2013-04-18 15:52:00,
2013-04-18 10:55:00,74.7,71.2,29.71,SSW,198,2.0,12.0,89,0.00,,---,0.00,VWS V14.00,2013-04-18 15:55:00,
2013-04-18 10:57:00,74.7,71.2,29.72,ESE,121,2.0,9.0,89,0.00,,---,0.00,VWS V14.00,2013-04-18 15:57:00,
2013-04-18 11:00:00,74.7,71.2,29.72,South,190,5.0,12.0,89,0.00,,---,0.00,VWS V14.00,2013-04-18 16:00:00,
2013-04-18 11:02:00,74.7,71.2,29.72,South,182,11.0,11.0,89,0.00,,---,0.00,VWS V14.00,2013-04-18 16:02:00,
2013-04-18 11:05:00,74.7,71.2,29.72,WSW,244,4.0,11.0,89,0.00,,---,0.00,VWS V14.00,2013-04-18 16:05:00,
2013-04-18 11:07:00,74.8,71.3,29.72,SSW,206,4.0,5.0,89,0.00,,---,0.00,VWS V14.00,2013-04-18 16:07:00,
2013-04-18 11:10:00,74.8,71.3,29.72,SW,215,5.0,11.0,89,0.00,,---,0.00,VWS V14.00,2013-04-18 16:10:00,
2013-04-18 11:12:00,74.8,71.3,29.72,ESE,109,2.0,5.0,89,0.00,,---,0.00,VWS V14.00,2013-04-18 16:12:00,
2013-04-18 11:15:00,74.8,71.3,29.72,ESE,105,0.0,9.0,89,0.00,,---,0.00,VWS V14.00,2013-04-18 16:15:00,
2013-04-18 11:17:00,74.9,71.4,29.72,SSW,208,3.0,10.0,89,0.00,,---,0.00,VWS V14.00,2013-04-18 16:17:00,
2013-04-18 11:20:00,74.9,71.4,29.72,South,184,2.0,10.0,89,0.00,,---,0.00,VWS V14.00,2013-04-18 16:20:00,
2013-04-18 11:22:00,74.9,71.4,29.72,SSE,165,12.0,13.0,89,0.00,,---,0.00,VWS V14.00,2013-04-18 16:22:00,
2013-04-18 11:25:00,74.9,71.4,29.72,SSW,200,9.0,13.0,89,0.00,,---,0.00,VWS V14.00,2013-04-18 16:25:00,
2013-04-18 11:27:00,75.0,71.5,29.72,SSW,207,6.0,9.0,89,0.00,,---,0.00,VWS V14.00,2013-04-18 16:27:00,
2013-04-18 11:30:00,75.0,71.5,29.72,SSW,199,4.0,11.0,89,0.00,,---,0.00,VWS V14.00,2013-04-18 16:30:00,
2013-04-18 11:32:00,75.1,71.6,29.72,SSW,205,4.0,11.0,89,0.00,,---,0.00,VWS V14.00,2013-04-18 16:32:00,
2013-04-18 11:35:00,75.1,71.6,29.73,SSW,203,1.0,12.0,89,0.00,,---,0.00,VWS V14.00,2013-04-18 16:35:00,
2013-04-18 11:37:00,75.2,71.7,29.73,SSW,198,3.0,6.0,89,0.00,,---,0.00,VWS V14.00,2013-04-18 16:37:00,
2013-04-18 11:40:00,75.2,71.7,29.73,SSW,192,6.0,9.0,89,0.00,,---,0.00,VWS V14.00,2013-04-18 16:40:00,
2013-04-18 11:42:00,75.2,71.4,29.73,SSW,197,5.0,11.0,88,0.00,,---,0.00,VWS V14.00,2013-04-18 16:42:00,
2013-04-18 11:45:00,75.3,71.5,29.73,SSW,208,6.0,11.0,88,0.00,,---,0.00,VWS V14.00,2013-04-18 16:45:00,
2013-04-18 11:47:00,75.3,71.5,29.73,SW,215,6.0,10.0,88,0.00,,---,0.00,VWS V14.00,2013-04-18 16:47:00,
2013-04-18 11:50:00,75.3,71.5,29.74,SSW,205,3.0,11.0,88,0.00,,---,0.00,VWS V14.00,2013-04-18 16:50:00,
2013-04-18 11:52:00,75.3,71.5,29.74,SSW,199,2.0,4.0,88,0.00,,---,0.00,VWS V14.00,2013-04-18 16:52:00,
2013-04-18 11:55:00,75.3,71.5,29.73,SSW,207,4.0,10.0,88,0.00,,---,0.00,VWS V14.00,2013-04-18 16:55:00,
2013-04-18 11:57:00,75.4,71.6,29.74,South,191,0.0,5.0,88,0.00,,---,0.00,VWS V14.00,2013-04-18 16:57:00,
2013-04-18 12:00:00,75.4,71.9,29.74,South,190,5.0,6.0,89,0.00,,---,0.00,VWS V14.00,2013-04-18 17:00:00,
2013-04-18 12:02:00,75.4,71.9,29.74,SSW,209,1.0,5.0,89,0.00,,---,0.00,VWS V14.00,2013-04-18 17:02:00,
2013-04-18 12:05:00,75.4,71.9,29.74,South,184,4.0,10.0,89,0.00,,---,0.00,VWS V14.00,2013-04-18 17:05:00,
2013-04-18 12:07:00,75.4,71.6,29.74,SW,215,3.0,10.0,88,0.00,,---,0.00,VWS V14.00,2013-04-18 17:07:00,
2013-04-18 12:10:00,75.4,71.9,29.74,SSW,211,6.0,10.0,89,0.00,,---,0.00,VWS V14.00,2013-04-18 17:10:00,
2013-04-18 12:12:00,75.4,71.9,29.74,SW,223,3.0,6.0,89,0.00,,---,0.00,VWS V14.00,2013-04-18 17:12:00,
2013-04-18 12:15:00,75.5,72.0,29.74,WSW,243,9.0,11.0,89,0.00,,---,0.00,VWS V14.00,2013-04-18 17:15:00,
2013-04-18 12:17:00,75.4,71.6,29.74,SSW,200,4.0,9.0,88,0.00,,---,0.00,VWS V14.00,2013-04-18 17:17:00,
2013-04-18 12:20:00,75.4,71.9,29.74,SSW,202,5.0,9.0,89,0.00,,---,0.00,VWS V14.00,2013-04-18 17:20:00,
2013-04-18 12:22:00,75.4,71.9,29.74,SSW,206,9.0,9.0,89,0.00,,---,0.00,VWS V14.00,2013-04-18 17:22:00,
2013-04-18 12:25:00,75.4,71.9,29.74,SSW,212,2.0,10.0,89,0.00,,---,0.00,VWS V14.00,2013-04-18 17:25:00,
2013-04-18 12:27:00,75.4,71.9,29.74,WSW,246,2.0,5.0,89,0.00,,---,0.00,VWS V14.00,2013-04-18 17:27:00,
2013-04-18 12:30:00,75.3,71.8,29.74,SW,218,3.0,10.0,89,0.00,,---,0.00,VWS V14.00,2013-04-18 17:30:00,
2013-04-18 12:32:00,75.2,71.7,29.74,South,191,5.0,11.0,89,0.00,,---,0.00,VWS V14.00,2013-04-18 17:32:00,
2013-04-18 12:35:00,75.2,71.7,29.74,SSW,196,0.0,11.0,89,0.00,,---,0.00,VWS V14.00,2013-04-18 17:35:00,
2013-04-18 12:37:00,75.2,71.7,29.73,South,186,2.0,6.0,89,0.00,,---,0.00,VWS V14.00,2013-04-18 17:37:00,
2013-04-18 12:40:00,75.2,71.7,29.73,SSW,193,6.0,11.0,89,0.00,,---,0.00,VWS V14.00,2013-04-18 17:40:00,
2013-04-18 12:42:00,75.2,71.7,29.73,SSW,192,4.0,7.0,89,0.00,,---,0.00,VWS V14.00,2013-04-18 17:42:00,
2013-04-18 12:45:00,75.1,71.6,29.73,SW,214,7.0,7.0,89,0.00,,---,0.00,VWS V14.00,2013-04-18 17:45:00,
2013-04-18 12:47:00,75.1,71.6,29.73,SSW,213,3.0,7.0,89,0.00,,---,0.00,VWS V14.00,2013-04-18 17:47:00,
2013-04-18 12:50:00,75.2,71.7,29.72,WSW,238,4.0,7.0,89,0.00,,---,0.00,VWS V14.00,2013-04-18 17:50:00,
2013-04-18 12:52:00,75.2,71.7,29.72,SSW,198,2.0,9.0,89,0.00,,---,0.00,VWS V14.00,2013-04-18 17:52:00,
2013-04-18 12:55:00,75.2,71.7,29.72,SW,221,5.0,9.0,89,0.00,,---,0.00,VWS V14.00,2013-04-18 17:55:00,
2013-04-18 12:57:00,75.2,71.7,29.72,SSW,198,0.0,6.0,89,0.00,,---,0.00,VWS V14.00,2013-04-18 17:57:00,
2013-04-18 13:00:00,75.3,71.8,29.72,SSW,202,0.0,6.0,89,0.00,,---,0.00,VWS V14.00,2013-04-18 18:00:00,
2013-04-18 13:02:00,75.3,72.2,29.72,SSW,200,3.0,3.0,90,0.00,,---,0.00,VWS V14.00,2013-04-18 18:02:00,
2013-04-18 13:05:00,75.4,71.9,29.72,SSW,199,3.0,7.0,89,0.00,,---,0.00,VWS V14.00,2013-04-18 18:05:00,
2013-04-18 13:07:00,75.4,71.9,29.71,SSW,199,5.0,6.0,89,0.00,,---,0.00,VWS V14.00,2013-04-18 18:07:00,
2013-04-18 13:10:00,75.4,71.9,29.72,SSW,210,3.0,6.0,89,0.00,,---,0.00,VWS V14.00,2013-04-18 18:10:00,
2013-04-18 13:12:00,75.3,71.8,29.72,SSE,150,8.0,9.0,89,0.00,,---,0.00,VWS V14.00,2013-04-18 18:12:00,
2013-04-18 13:15:00,75.3,71.8,29.72,SSW,199,5.0,10.0,89,0.00,,---,0.00,VWS V14.00,2013-04-18 18:15:00,
2013-04-18 13:17:00,75.3,71.8,29.72,SSW,202,5.0,7.0,89,0.00,,---,0.00,VWS V14.00,2013-04-18 18:17:00,
2013-04-18 13:20:00,75.2,71.7,29.72,SSW,207,1.0,7.0,89,0.00,,---,0.00,VWS V14.00,2013-04-18 18:20:00,
2013-04-18 13:22:00,75.2,71.7,29.72,SW,226,7.0,7.0,89,0.00,,---,0.00,VWS V14.00,2013-04-18 18:22:00,
2013-04-18 13:25:00,75.2,71.7,29.71,SSW,196,3.0,10.0,89,0.00,,---,0.00,VWS V14.00,2013-04-18 18:25:00,
2013-04-18 13:27:00,75.2,71.7,29.72,SSW,196,0.0,3.0,89,0.00,,---,0.00,VWS V14.00,2013-04-18 18:27:00,
2013-04-18 13:30:00,75.2,71.7,29.71,South,182,1.0,6.0,89,0.00,,---,0.00,VWS V14.00,2013-04-18 18:30:00,
2013-04-18 13:32:00,75.1,71.6,29.71,SSW,203,2.0,6.0,89,0.00,,---,0.00,VWS V14.00,2013-04-18 18:32:00,
2013-04-18 13:35:00,75.1,71.6,29.71,SSW,210,1.0,6.0,89,0.00,,---,0.00,VWS V14.00,2013-04-18 18:35:00,
2013-04-18 13:37:00,75.0,71.9,29.71,SSW,213,3.0,4.0,90,0.00,,---,0.00,VWS V14.00,2013-04-18 18:37:00,
2013-04-18 13:40:00,74.9,71.8,29.71,SW,222,5.0,6.0,90,0.00,,---,0.00,VWS V14.00,2013-04-18 18:40:00,
2013-04-18 13:42:00,74.9,71.8,29.71,SSW,209,5.0,5.0,90,0.00,,---,0.00,VWS V14.00,2013-04-18 18:42:00,
2013-04-18 13:45:00,74.8,71.7,29.71,SW,219,4.0,10.0,90,0.00,,---,0.00,VWS V14.00,2013-04-18 18:45:00,
2013-04-18 13:47:00,74.7,71.6,29.71,SW,230,0.0,7.0,90,0.00,,---,0.00,VWS V14.00,2013-04-18 18:47:00,
2013-04-18 13:50:00,74.7,71.6,29.71,SW,224,1.0,7.0,90,0.00,,---,0.00,VWS V14.00,2013-04-18 18:50:00,
2013-04-18 13:52:00,74.8,71.7,29.71,SSW,200,1.0,6.0,90,0.00,,---,0.00,VWS V14.00,2013-04-18 18:52:00,
2013-04-18 13:55:00,74.8,71.7,29.71,SSW,200,0.0,6.0,90,0.00,,---,0.00,VWS V14.00,2013-04-18 18:55:00,
2013-04-18 13:57:00,74.8,71.7,29.70,South,170,6.0,8.0,90,0.00,,---,0.00,VWS V14.00,2013-04-18 18:57:00,
2013-04-18 14:00:00,74.8,72.0,29.70,SSW,210,2.0,8.0,91,0.00,,---,0.00,VWS V14.00,2013-04-18 19:00:00,
2013-04-18 14:02:00,74.8,72.0,29.70,SW,217,5.0,6.0,91,0.00,,---,0.01,VWS V14.00,2013-04-18 19:02:00,
2013-04-18 14:05:00,74.7,71.6,29.70,SSW,199,1.0,6.0,90,0.00,,---,0.01,VWS V14.00,2013-04-18 19:05:00,
2013-04-18 14:07:00,74.7,71.6,29.70,SSW,194,4.0,6.0,90,0.00,,---,0.01,VWS V14.00,2013-04-18 19:07:00,
2013-04-18 14:10:00,74.6,71.8,29.72,WSW,240,1.0,7.0,91,0.00,,---,0.01,VWS V14.00,2013-04-18 19:10:00,
2013-04-18 14:12:00,74.6,71.8,29.72,NW,325,5.0,14.0,91,0.00,,---,0.01,VWS V14.00,2013-04-18 19:12:00,
2013-04-18 14:15:00,72.9,69.5,29.72,WNW,302,3.0,14.0,89,0.00,,---,0.01,VWS V14.00,2013-04-18 19:15:00,
2013-04-18 14:17:00,71.9,68.2,29.73,WNW,292,11.0,11.0,88,0.04,,---,0.02,VWS V14.00,2013-04-18 19:17:00,
2013-04-18 14:20:00,69.7,65.3,29.74,NW,304,3.0,11.0,86,0.25,,---,0.03,VWS V14.00,2013-04-18 19:20:00,
2013-04-18 14:22:00,68.9,64.9,29.74,NNW,333,3.0,6.0,87,0.22,,---,0.04,VWS V14.00,2013-04-18 19:22:00,
2013-04-18 14:25:00,67.6,63.6,29.74,NW,317,4.0,8.0,87,0.13,,---,0.04,VWS V14.00,2013-04-18 19:25:00,
2013-04-18 14:27:00,66.9,62.9,29.74,NW,322,0.0,5.0,87,0.11,,---,0.05,VWS V14.00,2013-04-18 19:27:00,
2013-04-18 14:30:00,66.0,62.3,29.73,NNW,329,5.0,11.0,88,0.43,,---,0.07,VWS V14.00,2013-04-18 19:30:00,
2013-04-18 14:32:00,65.6,62.0,29.73,North,5,4.0,15.0,88,0.40,,---,0.07,VWS V14.00,2013-04-18 19:32:00,
2013-04-18 14:35:00,64.8,61.2,29.74,NW,325,2.0,16.0,88,0.44,,---,0.09,VWS V14.00,2013-04-18 19:35:00,
2013-04-18 14:37:00,64.4,60.8,29.74,North,5,12.0,19.0,88,0.46,,---,0.11,VWS V14.00,2013-04-18 19:37:00,
2013-04-18 14:40:00,63.8,60.2,29.74,NW,304,4.0,19.0,88,0.20,,---,0.11,VWS V14.00,2013-04-18 19:40:00,
2013-04-18 14:42:00,63.5,59.9,29.74,North,11,5.0,11.0,88,0.13,,---,0.12,VWS V14.00,2013-04-18 19:42:00,
2013-04-18 14:45:00,63.2,59.9,29.75,NNE,28,6.0,12.0,89,0.13,,---,0.12,VWS V14.00,2013-04-18 19:45:00,
2013-04-18 14:47:00,63.0,59.7,29.75,NNW,348,4.0,13.0,89,0.11,,---,0.12,VWS V14.00,2013-04-18 19:47:00,
2013-04-18 14:50:00,62.5,59.2,29.75,WNW,294,7.0,19.0,89,0.07,,---,0.12,VWS V14.00,2013-04-18 19:50:00,
2013-04-18 14:52:00,62.3,59.0,29.75,NNW,327,4.0,16.0,89,0.06,,---,0.12,VWS V14.00,2013-04-18 19:52:00,
2013-04-18 14:55:00,62.1,58.8,29.75,NNW,339,10.0,21.0,89,0.04,,---,0.12,VWS V14.00,2013-04-18 19:55:00,
2013-04-18 14:57:00,61.9,58.6,29.75,NNW,344,5.0,16.0,89,0.04,,---,0.12,VWS V14.00,2013-04-18 19:57:00,
2013-04-18 15:00:00,61.7,58.4,29.75,NW,310,7.0,19.0,89,0.00,,---,0.12,VWS V14.00,2013-04-18 20:00:00,
2013-04-18 15:02:00,61.6,58.3,29.75,NW,304,4.0,11.0,89,0.00,,---,0.12,VWS V14.00,2013-04-18 20:02:00,
2013-04-18 15:05:00,61.4,58.1,29.76,North,9,1.0,18.0,89,0.00,,---,0.13,VWS V14.00,2013-04-18 20:05:00,
2013-04-18 15:07:00,61.3,58.3,29.76,North,350,5.0,14.0,90,0.00,,---,0.13,VWS V14.00,2013-04-18 20:07:00,
2013-04-18 15:10:00,61.1,58.2,29.76,NNW,334,2.0,15.0,90,0.00,,---,0.13,VWS V14.00,2013-04-18 20:10:00,
2013-04-18 15:12:00,61.1,58.2,29.76,NNW,344,6.0,9.0,90,0.00,,---,0.13,VWS V14.00,2013-04-18 20:12:00,
2013-04-18 15:15:00,60.9,58.0,29.76,North,5,7.0,17.0,90,0.40,,---,0.15,VWS V14.00,2013-04-18 20:15:00,
2013-04-18 15:17:00,60.8,57.8,29.76,NW,309,2.0,8.0,90,0.33,,---,0.15,VWS V14.00,2013-04-18 20:17:00,
2013-04-18 15:20:00,60.7,57.8,29.76,NE,45,7.0,16.0,90,0.10,,---,0.15,VWS V14.00,2013-04-18 20:20:00,
2013-04-18 15:22:00,60.5,57.6,29.76,NNW,340,4.0,15.0,90,0.10,,---,0.16,VWS V14.00,2013-04-18 20:22:00,
2013-04-18 15:25:00,60.3,57.4,29.76,NNW,347,7.0,18.0,90,0.10,,---,0.16,VWS V14.00,2013-04-18 20:25:00,
2013-04-18 15:27:00,60.1,56.8,29.76,North,360,9.0,17.0,89,0.10,,---,0.16,VWS V14.00,2013-04-18 20:27:00,
2013-04-18 15:30:00,59.9,57.0,29.76,North,9,3.0,17.0,90,0.06,,---,0.16,VWS V14.00,2013-04-18 20:30:00,
2013-04-18 15:32:00,59.8,56.9,29.76,North,360,5.0,9.0,90,0.06,,---,0.16,VWS V14.00,2013-04-18 20:32:00,
2013-04-18 15:35:00,59.6,56.4,29.76,North,355,14.0,20.0,89,0.04,,---,0.16,VWS V14.00,2013-04-18 20:35:00,
2013-04-18 15:37:00,59.4,56.2,29.76,NNE,19,9.0,14.0,89,0.04,,---,0.16,VWS V14.00,2013-04-18 20:37:00,
2013-04-18 15:40:00,59.1,56.2,29.76,NW,314,5.0,18.0,90,0.00,,---,0.16,VWS V14.00,2013-04-18 20:40:00,
2013-04-18 15:42:00,59.0,56.1,29.76,North,5,5.0,11.0,90,0.00,,---,0.16,VWS V14.00,2013-04-18 20:42:00,
2013-04-18 15:45:00,59.0,56.1,29.76,NNE,20,6.0,14.0,90,0.00,,---,0.16,VWS V14.00,2013-04-18 20:45:00,
2013-04-18 15:47:00,59.0,56.1,29.76,NNW,328,14.0,16.0,90,0.00,,---,0.16,VWS V14.00,2013-04-18 20:47:00,
2013-04-18 15:50:00,59.0,56.1,29.76,North,360,11.0,17.0,90,0.00,,---,0.16,VWS V14.00,2013-04-18 20:50:00,
2013-04-18 15:52:00,59.0,56.1,29.76,NNW,342,3.0,17.0,90,0.00,,---,0.16,VWS V14.00,2013-04-18 20:52:00,
2013-04-18 15:55:00,58.9,55.7,29.76,NW,309,6.0,21.0,89,0.00,,---,0.16,VWS V14.00,2013-04-18 20:55:00,
2013-04-18 15:57:00,58.7,55.5,29.76,NNE,14,9.0,13.0,89,0.00,,---,0.16,VWS V14.00,2013-04-18 20:57:00,
2013-04-18 16:00:00,58.5,55.3,29.76,North,5,14.0,19.0,89,0.00,,---,0.16,VWS V14.00,2013-04-18 21:00:00,
2013-04-18 16:02:00,58.4,55.2,29.76,North,355,8.0,17.0,89,0.00,,---,0.16,VWS V14.00,2013-04-18 21:02:00,
2013-04-18 16:05:00,58.3,55.1,29.76,NNE,17,4.0,18.0,89,0.00,,---,0.17,VWS V14.00,2013-04-18 21:05:00,
2013-04-18 16:07:00,58.2,55.0,29.76,North,355,3.0,13.0,89,0.00,,---,0.17,VWS V14.00,2013-04-18 21:07:00,
2013-04-18 16:10:00,58.2,55.3,29.77,North,355,12.0,17.0,90,0.00,,---,0.17,VWS V14.00,2013-04-18 21:10:00,
2013-04-18 16:12:00,58.2,55.3,29.77,NNW,348,11.0,12.0,90,0.00,,---,0.17,VWS V14.00,2013-04-18 21:12:00,
2013-04-18 16:15:00,58.2,55.3,29.76,NNW,333,3.0,13.0,90,0.00,,---,0.17,VWS V14.00,2013-04-18 21:15:00,
2013-04-18 16:17:00,58.2,55.0,29.76,NNW,341,10.0,10.0,89,0.00,,---,0.17,VWS V14.00,2013-04-18 21:17:00,
2013-04-18 16:20:00,58.3,55.4,29.77,NNE,19,5.0,12.0,90,0.00,,---,0.17,VWS V14.00,2013-04-18 21:20:00,
2013-04-18 16:22:00,58.4,55.5,29.77,North,355,5.0,14.0,90,0.00,,---,0.17,VWS V14.00,2013-04-18 21:22:00,
2013-04-18 16:25:00,58.5,55.6,29.77,NW,321,3.0,15.0,90,0.00,,---,0.17,VWS V14.00,2013-04-18 21:25:00,
2013-04-18 16:27:00,58.5,55.6,29.77,NNE,15,7.0,15.0,90,0.00,,---,0.17,VWS V14.00,2013-04-18 21:27:00,
2013-04-18 16:30:00,58.3,55.4,29.77,NNW,348,4.0,15.0,90,0.00,,---,0.17,VWS V14.00,2013-04-18 21:30:00,
2013-04-18 16:32:00,58.3,55.4,29.77,North,360,12.0,16.0,90,0.00,,---,0.17,VWS V14.00,2013-04-18 21:32:00,
2013-04-18 16:35:00,58.0,55.1,29.78,North,360,10.0,16.0,90,0.00,,---,0.17,VWS V14.00,2013-04-18 21:35:00,
2013-04-18 16:37:00,58.0,55.1,29.78,NNW,342,11.0,19.0,90,0.00,,---,0.17,VWS V14.00,2013-04-18 21:37:00,
2013-04-18 16:40:00,57.7,54.8,29.78,NNW,337,4.0,19.0,90,0.00,,---,0.18,VWS V14.00,2013-04-18 21:40:00,
2013-04-18 16:42:00,57.6,54.7,29.78,North,355,5.0,11.0,90,0.00,,---,0.18,VWS V14.00,2013-04-18 21:42:00,
2013-04-18 16:45:00,57.5,54.6,29.78,NNW,346,3.0,11.0,90,0.00,,---,0.18,VWS V14.00,2013-04-18 21:45:00,
2013-04-18 16:47:00,57.5,54.6,29.78,North,360,9.0,12.0,90,0.00,,---,0.18,VWS V14.00,2013-04-18 21:47:00,
2013-04-18 16:50:00,57.3,54.4,29.78,North,355,7.0,14.0,90,0.00,,---,0.18,VWS V14.00,2013-04-18 21:50:00,
2013-04-18 16:52:00,57.2,54.3,29.78,North,350,6.0,13.0,90,0.00,,---,0.18,VWS V14.00,2013-04-18 21:52:00,
2013-04-18 16:55:00,57.0,54.1,29.78,North,360,11.0,18.0,90,0.00,,---,0.18,VWS V14.00,2013-04-18 21:55:00,
2013-04-18 16:57:00,56.9,54.0,29.78,North,355,11.0,16.0,90,0.00,,---,0.18,VWS V14.00,2013-04-18 21:57:00,
2013-04-18 17:00:00,56.8,53.9,29.78,North,5,9.0,16.0,90,0.00,,---,0.19,VWS V14.00,2013-04-18 22:00:00,
2013-04-18 17:02:00,56.8,53.9,29.78,North,355,7.0,13.0,90,0.00,,---,0.19,VWS V14.00,2013-04-18 22:02:00,
2013-04-18 17:05:00,56.7,53.8,29.79,North,355,13.0,16.0,90,0.00,,---,0.19,VWS V14.00,2013-04-18 22:05:00,
2013-04-18 17:07:00,56.7,53.8,29.79,NNE,12,11.0,14.0,90,0.00,,---,0.19,VWS V14.00,2013-04-18 22:07:00,
2013-04-18 17:10:00,56.7,53.8,29.79,NNW,331,6.0,14.0,90,0.00,,---,0.19,VWS V14.00,2013-04-18 22:10:00,
2013-04-18 17:12:00,56.7,53.8,29.79,WNW,290,3.0,6.0,90,0.00,,---,0.19,VWS V14.00,2013-04-18 22:12:00,
2013-04-18 17:15:00,56.7,53.8,29.79,NW,317,0.0,10.0,90,0.00,,---,0.19,VWS V14.00,2013-04-18 22:15:00,
2013-04-18 17:17:00,56.7,53.8,29.79,North,360,5.0,7.0,90,0.00,,---,0.19,VWS V14.00,2013-04-18 22:17:00,
2013-04-18 17:20:00,56.7,53.8,29.79,NNE,23,7.0,11.0,90,0.00,,---,0.19,VWS V14.00,2013-04-18 22:20:00,
2013-04-18 17:22:00,56.7,53.8,29.79,North,360,4.0,7.0,90,0.00,,---,0.19,VWS V14.00,2013-04-18 22:22:00,
2013-04-18 17:25:00,56.6,53.7,29.79,NNE,15,4.0,15.0,90,0.00,,---,0.20,VWS V14.00,2013-04-18 22:25:00,
2013-04-18 17:27:00,56.6,53.7,29.79,North,355,3.0,15.0,90,0.00,,---,0.20,VWS V14.00,2013-04-18 22:27:00,
2013-04-18 17:30:00,56.4,53.5,29.80,NNE,26,5.0,15.0,90,0.12,,---,0.21,VWS V14.00,2013-04-18 22:30:00,
2013-04-18 17:32:00,56.3,53.4,29.80,North,355,7.0,12.0,90,0.12,,---,0.21,VWS V14.00,2013-04-18 22:32:00,
2013-04-18 17:35:00,56.2,53.3,29.80,NW,321,3.0,13.0,90,0.07,,---,0.21,VWS V14.00,2013-04-18 22:35:00,
2013-04-18 17:37:00,56.2,53.3,29.80,NW,307,5.0,6.0,90,0.07,,---,0.22,VWS V14.00,2013-04-18 22:37:00,
2013-04-18 17:40:00,56.2,53.3,29.80,NNE,15,7.0,10.0,90,0.07,,---,0.22,VWS V14.00,2013-04-18 22:40:00,
2013-04-18 17:42:00,56.1,53.2,29.80,North,355,11.0,13.0,90,0.07,,---,0.22,VWS V14.00,2013-04-18 22:42:00,
2013-04-18 17:45:00,56.1,53.2,29.80,North,355,6.0,15.0,90,0.08,,---,0.23,VWS V14.00,2013-04-18 22:45:00,
2013-04-18 17:47:00,56.0,53.1,29.80,North,360,6.0,14.0,90,0.08,,---,0.23,VWS V14.00,2013-04-18 22:47:00,
2013-04-18 17:50:00,56.1,53.2,29.80,North,355,7.0,14.0,90,0.08,,---,0.23,VWS V14.00,2013-04-18 22:50:00,
2013-04-18 17:52:00,56.0,53.1,29.80,North,360,4.0,11.0,90,0.08,,---,0.23,VWS V14.00,2013-04-18 22:52:00,
2013-04-18 17:55:00,56.0,53.1,29.81,NNW,340,2.0,11.0,90,0.05,,---,0.23,VWS V14.00,2013-04-18 22:55:00,
2013-04-18 17:57:00,56.0,53.1,29.81,North,360,4.0,8.0,90,0.05,,---,0.23,VWS V14.00,2013-04-18 22:57:00,
2013-04-18 18:00:00,56.0,53.1,29.81,North,355,4.0,14.0,90,0.04,,---,0.23,VWS V14.00,2013-04-18 23:00:00,
2013-04-18 18:02:00,56.0,53.1,29.81,NNW,338,3.0,13.0,90,0.00,,---,0.23,VWS V14.00,2013-04-18 23:02:00,
2013-04-18 18:05:00,55.9,53.0,29.81,WNW,298,3.0,14.0,90,0.00,,---,0.23,VWS V14.00,2013-04-18 23:05:00,
2013-04-18 18:07:00,55.9,53.0,29.82,WNW,300,3.0,4.0,90,0.00,,---,0.23,VWS V14.00,2013-04-18 23:07:00,
2013-04-18 18:10:00,55.8,52.9,29.81,North,5,10.0,13.0,90,0.00,,---,0.23,VWS V14.00,2013-04-18 23:10:00,
2013-04-18 18:12:00,55.7,52.8,29.82,North,355,6.0,11.0,90,0.00,,---,0.23,VWS V14.00,2013-04-18 23:12:00,
2013-04-18 18:15:00,55.5,52.6,29.82,North,360,12.0,15.0,90,0.00,,---,0.23,VWS V14.00,2013-04-18 23:15:00,
2013-04-18 18:17:00,55.4,52.5,29.82,North,10,4.0,16.0,90,0.00,,---,0.23,VWS V14.00,2013-04-18 23:17:00,
2013-04-18 18:20:00,55.3,52.4,29.82,NNW,348,5.0,17.0,90,0.00,,---,0.23,VWS V14.00,2013-04-18 23:20:00,
2013-04-18 18:22:00,55.3,52.4,29.82,North,355,6.0,6.0,90,0.00,,---,0.23,VWS V14.00,2013-04-18 23:22:00,
2013-04-18 18:25:00,55.2,52.3,29.82,North,5,6.0,14.0,90,0.00,,---,0.23,VWS V14.00,2013-04-18 23:25:00,
2013-04-18 18:27:00,55.2,52.3,29.82,NNW,348,11.0,17.0,90,0.00,,---,0.23,VWS V14.00,2013-04-18 23:27:00,
2013-04-18 18:30:00,55.1,52.2,29.83,WNW,300,3.0,17.0,90,0.00,,---,0.23,VWS V14.00,2013-04-18 23:30:00,
2013-04-18 18:32:00,55.1,52.2,29.83,North,350,3.0,15.0,90,0.00,,---,0.23,VWS V14.00,2013-04-18 23:32:00,
2013-04-18 18:35:00,55.0,52.1,29.83,NNW,344,2.0,16.0,90,0.00,,---,0.23,VWS V14.00,2013-04-18 23:35:00,
2013-04-18 18:37:00,55.0,52.1,29.83,NW,326,2.0,6.0,90,0.00,,---,0.23,VWS V14.00,2013-04-18 23:37:00,
2013-04-18 18:40:00,55.0,52.1,29.84,North,5,9.0,16.0,90,0.00,,---,0.23,VWS V14.00,2013-04-18 23:40:00,
2013-04-18 18:42:00,55.0,51.8,29.84,NNE,17,10.0,14.0,89,0.00,,---,0.23,VWS V14.00,2013-04-18 23:42:00,
2013-04-18 18:45:00,54.9,51.7,29.84,WNW,290,6.0,14.0,89,0.00,,---,0.23,VWS V14.00,2013-04-18 23:45:00,
2013-04-18 18:47:00,55.0,51.8,29.84,NNW,329,3.0,7.0,89,0.00,,---,0.23,VWS V14.00,2013-04-18 23:47:00,
2013-04-18 18:50:00,55.0,51.8,29.84,North,355,11.0,17.0,89,0.00,,---,0.23,VWS V14.00,2013-04-18 23:50:00,
2013-04-18 18:52:00,55.0,51.8,29.84,NW,323,9.0,15.0,89,0.00,,---,0.23,VWS V14.00,2013-04-18 23:52:00,
2013-04-18 18:55:00,55.0,51.8,29.84,NNE,17,9.0,17.0,89,0.00,,---,0.23,VWS V14.00,2013-04-18 23:55:00,
2013-04-18 18:57:00,55.0,51.8,29.84,North,355,11.0,11.0,89,0.00,,---,0.23,VWS V14.00,2013-04-18 23:57:00,
2013-04-18 19:00:00,54.9,51.7,29.85,North,355,11.0,17.0,89,0.00,,---,0.23,VWS V14.00,2013-04-19 00:00:00,
2013-04-18 19:02:00,55.0,51.8,29.85,North,355,5.0,12.0,89,0.00,,---,0.23,VWS V14.00,2013-04-19 00:02:00,
2013-04-18 19:05:00,55.0,51.8,29.85,NNW,344,3.0,12.0,89,0.00,,---,0.23,VWS V14.00,2013-04-19 00:05:00,
2013-04-18 19:07:00,55.0,51.8,29.85,NNE,18,4.0,7.0,89,0.00,,---,0.23,VWS V14.00,2013-04-19 00:07:00,
2013-04-18 19:10:00,55.1,51.9,29.85,North,11,1.0,10.0,89,0.00,,---,0.23,VWS V14.00,2013-04-19 00:10:00,
2013-04-18 19:12:00,55.1,51.9,29.85,North,355,6.0,9.0,89,0.00,,---,0.23,VWS V14.00,2013-04-19 00:12:00,
2013-04-18 19:15:00,55.1,51.9,29.85,NNW,328,3.0,12.0,89,0.00,,---,0.23,VWS V14.00,2013-04-19 00:15:00,
2013-04-18 19:17:00,55.1,51.9,29.85,North,5,4.0,12.0,89,0.00,,---,0.23,VWS V14.00,2013-04-19 00:17:00,
2013-04-18 19:20:00,55.0,51.8,29.86,NNE,15,7.0,14.0,89,0.00,,---,0.23,VWS V14.00,2013-04-19 00:20:00,
2013-04-18 19:22:00,55.0,51.8,29.86,North,10,9.0,12.0,89,0.00,,---,0.23,VWS V14.00,2013-04-19 00:22:00,
2013-04-18 19:25:00,55.0,51.8,29.86,NNW,339,8.0,14.0,89,0.00,,---,0.23,VWS V14.00,2013-04-19 00:25:00,
2013-04-18 19:27:00,54.9,51.7,29.86,NNW,329,6.0,10.0,89,0.00,,---,0.23,VWS V14.00,2013-04-19 00:27:00,
2013-04-18 19:30:00,54.9,51.7,29.86,NW,314,10.0,11.0,89,0.00,,---,0.23,VWS V14.00,2013-04-19 00:30:00,
2013-04-18 19:32:00,54.9,51.7,29.86,NNW,335,6.0,13.0,89,0.00,,---,0.23,VWS V14.00,2013-04-19 00:32:00,
2013-04-18 19:35:00,54.8,51.6,29.86,NNW,329,9.0,13.0,89,0.00,,---,0.23,VWS V14.00,2013-04-19 00:35:00,
2013-04-18 19:37:00,54.8,51.6,29.87,NNE,13,5.0,14.0,89,0.00,,---,0.23,VWS V14.00,2013-04-19 00:37:00,
2013-04-18 19:40:00,54.7,51.5,29.87,WNW,303,5.0,15.0,89,0.00,,---,0.23,VWS V14.00,2013-04-19 00:40:00,
2013-04-18 19:42:00,54.7,51.5,29.87,NW,321,3.0,15.0,89,0.00,,---,0.23,VWS V14.00,2013-04-19 00:42:00,
2013-04-18 19:45:00,54.6,51.4,29.88,North,5,9.0,15.0,89,0.00,,---,0.23,VWS V14.00,2013-04-19 00:45:00,
2013-04-18 19:46:00,54.6,51.4,29.88,NNW,342,4.0,9.0,89,0.00,,---,0.23,VWS V14.00,2013-04-19 00:46:00,
2013-04-18 19:50:00,54.5,51.0,29.88,North,351,12.0,14.0,88,0.00,,---,0.23,VWS V14.00,2013-04-19 00:50:00,
2013-04-18 19:51:00,54.4,50.9,29.88,NNE,17,7.0,14.0,88,0.00,,---,0.23,VWS V14.00,2013-04-19 00:51:00,
2013-04-18 19:55:00,54.3,50.8,29.88,North,355,10.0,18.0,88,0.00,,---,0.23,VWS V14.00,2013-04-19 00:55:00,
2013-04-18 19:56:00,54.3,50.8,29.88,North,360,5.0,11.0,88,0.00,,---,0.23,VWS V14.00,2013-04-19 00:56:00,
2013-04-18 20:00:00,54.2,50.7,29.88,NNW,338,7.0,16.0,88,0.00,,---,0.23,VWS V14.00,2013-04-19 01:00:00,
2013-04-18 20:01:00,54.2,50.7,29.88,NNW,342,10.0,16.0,88,0.00,,---,0.23,VWS V14.00,2013-04-19 01:01:00,
2013-04-18 20:05:00,54.1,50.3,29.88,NW,317,3.0,19.0,87,0.00,,---,0.23,VWS V14.00,2013-04-19 01:05:00,
2013-04-18 20:06:00,54.1,50.3,29.88,North,9,10.0,12.0,87,0.00,,---,0.23,VWS V14.00,2013-04-19 01:06:00,
2013-04-18 20:10:00,54.1,50.3,29.89,NNW,346,6.0,16.0,87,0.00,,---,0.23,VWS V14.00,2013-04-19 01:10:00,
2013-04-18 20:11:00,54.1,50.6,29.89,North,360,4.0,11.0,88,0.00,,---,0.23,VWS V14.00,2013-04-19 01:11:00,
2013-04-18 20:15:00,54.1,50.3,29.90,North,5,7.0,18.0,87,0.00,,---,0.23,VWS V14.00,2013-04-19 01:15:00,
2013-04-18 20:16:00,54.1,50.3,29.90,North,5,5.0,7.0,87,0.00,,---,0.23,VWS V14.00,2013-04-19 01:16:00,
2013-04-18 20:20:00,54.1,50.3,29.90,NNE,26,2.0,18.0,87,0.00,,---,0.23,VWS V14.00,2013-04-19 01:20:00,
2013-04-18 20:21:00,54.1,50.3,29.90,NNW,340,5.0,5.0,87,0.00,,---,0.23,VWS V14.00,2013-04-19 01:21:00,
2013-04-18 20:25:00,54.1,50.3,29.91,NNW,340,8.0,14.0,87,0.00,,---,0.23,VWS V14.00,2013-04-19 01:25:00,
2013-04-18 20:27:00,54.1,50.3,29.91,NNW,338,6.0,10.0,87,0.00,,---,0.23,VWS V14.00,2013-04-19 01:27:00,
2013-04-18 20:30:00,54.1,50.3,29.91,North,5,5.0,16.0,87,0.00,,---,0.23,VWS V14.00,2013-04-19 01:30:00,
2013-04-18 20:31:00,54.1,50.3,29.91,North,360,10.0,12.0,87,0.00,,---,0.23,VWS V14.00,2013-04-19 01:31:00,
2013-04-18 20:35:00,53.9,50.1,29.92,NNW,337,6.0,14.0,87,0.00,,---,0.23,VWS V14.00,2013-04-19 01:35:00,
2013-04-18 20:36:00,53.9,50.1,29.92,NNE,15,5.0,11.0,87,0.00,,---,0.23,VWS V14.00,2013-04-19 01:36:00,
2013-04-18 20:40:00,53.8,50.0,29.92,NW,317,4.0,12.0,87,0.00,,---,0.23,VWS V14.00,2013-04-19 01:40:00,
2013-04-18 20:41:00,53.7,49.6,29.92,North,9,6.0,11.0,86,0.00,,---,0.23,VWS V14.00,2013-04-19 01:41:00,
2013-04-18 20:45:00,53.6,49.5,29.93,NNE,18,10.0,14.0,86,0.00,,---,0.23,VWS V14.00,2013-04-19 01:45:00,
2013-04-18 20:46:00,53.5,49.4,29.93,North,360,14.0,18.0,86,0.00,,---,0.23,VWS V14.00,2013-04-19 01:46:00,
2013-04-18 20:50:00,53.5,49.4,29.93,NW,316,6.0,18.0,86,0.00,,---,0.23,VWS V14.00,2013-04-19 01:50:00,
2013-04-18 20:51:00,53.5,49.4,29.93,North,355,15.0,15.0,86,0.00,,---,0.23,VWS V14.00,2013-04-19 01:51:00,
2013-04-18 20:55:00,53.4,49.3,29.94,NW,304,6.0,18.0,86,0.00,,---,0.23,VWS V14.00,2013-04-19 01:55:00,
2013-04-18 20:56:00,53.4,49.3,29.94,North,5,5.0,13.0,86,0.00,,---,0.23,VWS V14.00,2013-04-19 01:56:00,
2013-04-18 21:00:00,53.4,49.3,29.94,NNW,347,5.0,15.0,86,0.00,,---,0.23,VWS V14.00,2013-04-19 02:00:00,
2013-04-18 21:01:00,53.4,49.3,29.94,NNE,18,4.0,9.0,86,0.00,,---,0.23,VWS V14.00,2013-04-19 02:01:00,
2013-04-18 21:05:00,53.4,49.3,29.95,NNW,331,5.0,13.0,86,0.00,,---,0.23,VWS V14.00,2013-04-19 02:05:00,
2013-04-18 21:06:00,53.4,49.3,29.95,North,349,7.0,15.0,86,0.00,,---,0.23,VWS V14.00,2013-04-19 02:06:00,
2013-04-18 21:10:00,53.4,49.3,29.95,WNW,298,3.0,15.0,86,0.00,,---,0.23,VWS V14.00,2013-04-19 02:10:00,
2013-04-18 21:11:00,53.4,49.3,29.96,North,10,5.0,11.0,86,0.00,,---,0.23,VWS V14.00,2013-04-19 02:11:00,
2013-04-18 21:15:00,53.4,49.0,29.96,NNW,333,2.0,17.0,85,0.00,,---,0.23,VWS V14.00,2013-04-19 02:15:00,
2013-04-18 21:16:00,53.4,49.0,29.96,North,349,5.0,17.0,85,0.00,,---,0.23,VWS V14.00,2013-04-19 02:16:00,
2013-04-18 21:20:00,53.4,49.0,29.96,NNE,21,7.0,17.0,85,0.00,,---,0.23,VWS V14.00,2013-04-19 02:20:00,
2013-04-18 21:21:00,53.4,49.0,29.96,North,360,9.0,13.0,85,0.00,,---,0.23,VWS V14.00,2013-04-19 02:21:00,
2013-04-18 21:25:00,53.4,49.0,29.97,North,360,8.0,19.0,85,0.00,,---,0.23,VWS V14.00,2013-04-19 02:25:00,
2013-04-18 21:26:00,53.4,49.0,29.97,North,355,11.0,17.0,85,0.00,,---,0.23,VWS V14.00,2013-04-19 02:26:00,
2013-04-18 21:30:00,53.5,48.8,29.97,North,5,6.0,17.0,84,0.00,,---,0.23,VWS V14.00,2013-04-19 02:30:00,
2013-04-18 21:31:00,53.5,48.8,29.97,NNW,333,6.0,13.0,84,0.00,,---,0.23,VWS V14.00,2013-04-19 02:31:00,
2013-04-18 21:35:00,53.5,48.8,29.98,NNW,330,6.0,17.0,84,0.00,,---,0.23,VWS V14.00,2013-04-19 02:35:00,
2013-04-18 21:36:00,53.5,48.8,29.98,NW,314,4.0,13.0,84,0.00,,---,0.23,VWS V14.00,2013-04-19 02:36:00,
2013-04-18 21:40:00,53.5,48.8,29.98,North,360,15.0,22.0,84,0.00,,---,0.23,VWS V14.00,2013-04-19 02:40:00,
2013-04-18 21:41:00,53.5,48.8,29.98,NNW,336,11.0,16.0,84,0.00,,---,0.23,VWS V14.00,2013-04-19 02:41:00,
2013-04-18 21:45:00,53.5,48.8,29.98,North,360,10.0,19.0,84,0.00,,---,0.23,VWS V14.00,2013-04-19 02:45:00,
2013-04-18 21:46:00,53.5,48.8,29.98,NNE,14,11.0,15.0,84,0.00,,---,0.23,VWS V14.00,2013-04-19 02:46:00,
2013-04-18 21:50:00,53.5,48.8,29.98,NNW,330,6.0,15.0,84,0.00,,---,0.23,VWS V14.00,2013-04-19 02:50:00,
2013-04-18 21:51:00,53.5,48.8,29.98,North,5,6.0,13.0,84,0.00,,---,0.23,VWS V14.00,2013-04-19 02:51:00,
2013-04-18 21:55:00,53.5,48.5,29.98,North,355,10.0,19.0,83,0.00,,---,0.23,VWS V14.00,2013-04-19 02:55:00,
2013-04-18 21:56:00,53.5,48.5,29.98,North,355,10.0,11.0,83,0.00,,---,0.23,VWS V14.00,2013-04-19 02:56:00,
2013-04-18 22:00:00,53.5,48.5,29.98,NNW,337,6.0,16.0,83,0.00,,---,0.23,VWS V14.00,2013-04-19 03:00:00,
2013-04-18 22:01:00,53.6,48.6,29.99,North,355,7.0,17.0,83,0.00,,---,0.23,VWS V14.00,2013-04-19 03:01:00,
2013-04-18 22:05:00,53.5,48.5,29.99,WNW,297,3.0,17.0,83,0.00,,---,0.23,VWS V14.00,2013-04-19 03:05:00,
2013-04-18 22:06:00,53.5,48.5,29.99,NNW,346,5.0,6.0,83,0.00,,---,0.23,VWS V14.00,2013-04-19 03:06:00,
2013-04-18 22:10:00,53.5,48.5,29.99,NNE,13,5.0,18.0,83,0.00,,---,0.23,VWS V14.00,2013-04-19 03:10:00,
2013-04-18 22:11:00,53.5,48.5,29.99,NNW,337,10.0,19.0,83,0.00,,---,0.23,VWS V14.00,2013-04-19 03:11:00,
2013-04-18 22:15:00,53.5,48.5,29.99,North,5,5.0,19.0,83,0.00,,---,0.23,VWS V14.00,2013-04-19 03:15:00,
2013-04-18 22:16:00,53.5,48.5,30.00,North,355,5.0,6.0,83,0.00,,---,0.23,VWS V14.00,2013-04-19 03:16:00,
2013-04-18 22:20:00,53.6,48.6,29.99,NNW,341,8.0,17.0,83,0.00,,---,0.23,VWS V14.00,2013-04-19 03:20:00,
2013-04-18 22:21:00,53.6,48.6,29.99,NNW,341,7.0,14.0,83,0.00,,---,0.23,VWS V14.00,2013-04-19 03:21:00,
2013-04-18 22:25:00,53.7,48.7,29.99,NW,317,5.0,14.0,83,0.00,,---,0.23,VWS V14.00,2013-04-19 03:25:00,
2013-04-18 22:26:00,53.7,48.7,30.00,NNE,30,4.0,6.0,83,0.00,,---,0.23,VWS V14.00,2013-04-19 03:26:00,
2013-04-18 22:30:00,53.7,48.7,30.00,North,9,12.0,20.0,83,0.00,,---,0.23,VWS V14.00,2013-04-19 03:30:00,
2013-04-18 22:31:00,53.7,48.7,30.00,NNE,22,12.0,19.0,83,0.00,,---,0.23,VWS V14.00,2013-04-19 03:31:00,
2013-04-18 22:35:00,53.8,48.4,30.00,North,5,9.0,19.0,82,0.00,,---,0.23,VWS V14.00,2013-04-19 03:35:00,
2013-04-18 22:36:00,53.8,48.4,30.00,NNW,338,9.0,11.0,82,0.00,,---,0.23,VWS V14.00,2013-04-19 03:36:00,
2013-04-18 22:40:00,53.9,48.5,30.00,NNE,18,7.0,16.0,82,0.00,,---,0.23,VWS V14.00,2013-04-19 03:40:00,
2013-04-18 22:41:00,53.9,48.5,30.00,North,5,12.0,12.0,82,0.00,,---,0.23,VWS V14.00,2013-04-19 03:41:00,
2013-04-18 22:45:00,53.9,48.5,30.00,NNW,329,12.0,17.0,82,0.00,,---,0.23,VWS V14.00,2013-04-19 03:45:00,
2013-04-18 22:46:00,53.9,48.5,30.00,NW,318,3.0,12.0,82,0.00,,---,0.23,VWS V14.00,2013-04-19 03:46:00,
2013-04-18 22:50:00,53.9,48.5,30.00,NNW,332,4.0,15.0,82,0.00,,---,0.23,VWS V14.00,2013-04-19 03:50:00,
2013-04-18 22:51:00,53.9,48.5,30.00,NW,326,9.0,11.0,82,0.00,,---,0.23,VWS V14.00,2013-04-19 03:51:00,
2013-04-18 22:55:00,53.9,48.5,30.01,North,9,7.0,15.0,82,0.00,,---,0.23,VWS V14.00,2013-04-19 03:55:00,
2013-04-18 22:56:00,53.9,48.5,30.01,NNE,28,7.0,7.0,82,0.00,,---,0.23,VWS V14.00,2013-04-19 03:56:00,
2013-04-18 23:00:00,53.9,48.2,30.01,North,9,10.0,16.0,81,0.00,,---,0.23,VWS V14.00,2013-04-19 04:00:00,
2013-04-18 23:01:00,53.9,48.2,30.01,NNW,331,11.0,16.0,81,0.00,,---,0.23,VWS V14.00,2013-04-19 04:01:00,
2013-04-18 23:05:00,53.9,48.2,30.01,North,10,5.0,14.0,81,0.00,,---,0.23,VWS V14.00,2013-04-19 04:05:00,
2013-04-18 23:06:00,53.9,48.2,30.01,North,10,5.0,14.0,81,0.00,,---,0.23,VWS V14.00,2013-04-19 04:06:00,
2013-04-18 23:10:00,53.9,48.2,30.01,NNE,22,9.0,16.0,81,0.00,,---,0.23,VWS V14.00,2013-04-19 04:10:00,
2013-04-18 23:11:00,53.9,48.2,30.01,NNE,16,10.0,16.0,81,0.00,,---,0.23,VWS V14.00,2013-04-19 04:11:00,
2013-04-18 23:15:00,53.8,48.1,30.01,NNW,335,15.0,15.0,81,0.00,,---,0.23,VWS V14.00,2013-04-19 04:15:00,
2013-04-18 23:16:00,53.8,48.1,30.01,NNW,333,9.0,15.0,81,0.00,,---,0.23,VWS V14.00,2013-04-19 04:16:00,
2013-04-18 23:20:00,53.8,48.1,30.01,North,5,10.0,15.0,81,0.00,,---,0.23,VWS V14.00,2013-04-19 04:20:00,
2013-04-18 23:21:00,53.8,48.1,30.01,North,350,10.0,15.0,81,0.00,,---,0.23,VWS V14.00,2013-04-19 04:21:00,
2013-04-18 23:25:00,53.7,48.0,30.01,North,360,12.0,15.0,81,0.00,,---,0.23,VWS V14.00,2013-04-19 04:25:00,
2013-04-18 23:26:00,53.7,48.0,30.01,North,360,12.0,15.0,81,0.00,,---,0.23,VWS V14.00,2013-04-19 04:26:00,
2013-04-18 23:30:00,53.6,47.9,30.01,North,355,7.0,15.0,81,0.00,,---,0.23,VWS V14.00,2013-04-19 04:30:00,
2013-04-18 23:31:00,53.6,47.9,30.01,North,360,7.0,15.0,81,0.00,,---,0.23,VWS V14.00,2013-04-19 04:31:00,
2013-04-18 23:35:00,53.6,47.9,30.01,North,355,6.0,19.0,81,0.00,,---,0.23,VWS V14.00,2013-04-19 04:35:00,
2013-04-18 23:36:00,53.6,47.9,30.01,NNW,348,8.0,19.0,81,0.00,,---,0.23,VWS V14.00,2013-04-19 04:36:00,
2013-04-18 23:40:00,53.6,47.9,30.01,North,5,6.0,18.0,81,0.00,,---,0.23,VWS V14.00,2013-04-19 04:40:00,
2013-04-18 23:41:00,53.6,47.9,30.01,NNE,15,9.0,18.0,81,0.00,,---,0.23,VWS V14.00,2013-04-19 04:41:00,
2013-04-18 23:45:00,53.5,47.8,30.01,North,360,16.0,16.0,81,0.00,,---,0.23,VWS V14.00,2013-04-19 04:45:00,
2013-04-18 23:46:00,53.5,47.8,30.01,North,355,15.0,16.0,81,0.00,,---,0.23,VWS V14.00,2013-04-19 04:46:00,
2013-04-18 23:50:00,53.5,47.8,30.01,North,360,3.0,20.0,81,0.00,,---,0.23,VWS V14.00,2013-04-19 04:50:00,
2013-04-18 23:55:00,53.5,47.8,30.00,NNE,22,12.0,15.0,81,0.00,,---,0.23,VWS V14.00,2013-04-19 04:55:00,